CO3D 2

Last updated on Thu Oct 30 2025 00:02:32 GMT+0000 (Coordinated Universal Time)

1 64902U 25156D 25302.51140159 .00003414 00000+0 16077-3 0 9993 2 64902 97.4346 19.4116 0000782 217.6860 142.4321 15.20200507 14481
UTC large
Height (km)
Speed (km/s)
/
Latitude / Longitude
Inclination (degrees)
Orbital Period (minutes)
Azimuth
Elevation
Range (km)
Doppler Factor

Next 0 passes for location: London (51.5072 / 0.1276)

Sorry there are no passes over London.